This demonstration page uses our WeatherBlox Daily Observations layout. Learn more.

Hourly Observations for May 23, 2019

Temp ( °F °C ) Dew Point ( °F °C ) Humidity (%) Winds ( mph kmh ) Pressure ( in mb ) Visibility ( mi km ) Precip ( " mm )
12:54 am 00:54 Clear 48 8.9 43 6.1 83 83 Calm 29.97 1015 10 16.0934 0 0
1:54 am 01:54 Clear 49 9.4 43 6.1 80 80 NNW 3 6 29.96 1015 10 16.0934 0 0
2:54 am 02:54 Clear 47 8.3 43 6.1 86 86 S 7 11 30.01 1016 10 16.0934 0 0
3:54 am 03:54 Clear 46 7.8 42 5.6 86 86 Calm 30.04 1017 10 16.0934 0 0
4:54 am 04:54 Clear 47 8.3 42 5.6 83 83 NNW 6 9 30.05 1018 10 16.0934 0 0
5:54 am 05:54 Mostly Cloudy 47 8.3 42 5.6 83 83 WSW 7 11 30.08 1019 10 16.0934 0 0
6:54 am 06:54 Partly Cloudy 47 8.3 43 6.1 86 86 NNW 5 7 30.09 1019 10 16.0934 0 0
7:54 am 07:54 Mostly Sunny 52 11.1 46 7.8 80 80 Calm 30.11 1020 10 16.0934 0 0
8:54 am 08:54 Mostly Sunny 57 13.9 46 7.8 67 67 N 3 6 30.13 1020 10 16.0934 0 0
9:54 am 09:54 Partly Cloudy 61 16.1 46 7.8 58 58 VRB 5 7 30.13 1020 10 16.0934 0 0
10:54 am 10:54 Cloudy 62 16.7 45 7.2 54 54 NNE 7 11 30.13 1020 10 16.0934 0 0
11:54 am 11:54 Cloudy 64 17.8 46 7.8 52 52 VRB 6 9 30.12 1020 10 16.0934 0 0
12:54 pm 12:54 Sunny 66 18.9 46 7.8 49 49 Calm 30.12 1020 10 16.0934 0 0
1:54 pm 13:54 Mostly Sunny 66 18.9 45 7.2 47 47 N 3 6 30.1 1019 10 16.0934 0 0
2:54 pm 14:54 Sunny 67 19.4 46 7.8 47 47 NE 6 9 30.08 1019 10 16.0934 0 0
3:30 pm 15:30 Mostly Cloudy with Thunderstorms 67 19.4 44 6.7 44 44 undefined N/A 30.15 1021 10 16.0934 0 0
3:54 pm 15:54 Cloudy with Heavy Thunderstorms 58 14.4 51 10.6 78 78 N 9 15 30.13 1020 5 8.0467 0.07 1.778
4:05 pm 16:05 Cloudy with Nearby Thunderstorms 58 14.4 52 11.1 81 81 ENE 10 17 30.11 1020 8 12.87472 0.01 0.254
4:12 pm 16:12 Cloudy with Heavy Thunderstorms 57 13.9 52 11.1 83 83 ENE 15 24 30.06 1018 2.5 4.02335 0.06 1.524
4:20 pm 16:20 Cloudy with Light Thunderstorms 59 15 52 11.1 78 78 NE 9 15 30.09 1019 8 12.87472 0.07 1.778
4:29 pm 16:29 Mostly Cloudy with Light Rain 61 16.1 53 11.7 75 75 NE 14 22 30.05 1018 8 12.87472 0.07 1.778
4:54 pm 16:54 Mostly Cloudy 61 16.1 52 11.1 72 72 ENE 10 17 30.06 1018 8 12.87472 0.07 1.778
5:54 pm 17:54 Cloudy 61 16.1 51 10.6 70 70 E 15 24 30.04 1017 10 16.0934 0 0
6:54 pm 18:54 Cloudy 60 15.6 49 9.4 67 67 E 13 20 30 1016 10 16.0934 0 0
7:54 pm 19:54 Cloudy 60 15.6 50 10 70 70 ENE 15 24 29.97 1015 10 16.0934 0 0
8:54 pm 20:54 Cloudy with Nearby Thunderstorms 60 15.6 50 10 70 70 ENE 8 13 29.97 1015 10 16.0934 0 0.0254
9:03 pm 21:03 Cloudy with Heavy Thunderstorms 58 14.4 51 10.6 78 78 ENE 14 22 29.94 1014 5 8.0467 0.02 0.508
9:25 pm 21:25 Cloudy with Nearby Thunderstorms 57 13.9 51 10.6 81 81 NE 12 19 29.98 1015 10 16.0934 0.07 1.778
9:40 pm 21:40 Mostly Cloudy with Light Rain 57 13.9 51 10.6 81 81 E 10 17 29.97 1015 9 14.48406 0.07 1.778
9:54 pm 21:54 Cloudy with Light Rain 57 13.9 52 11.1 83 83 NE 13 20 29.96 1015 10 16.0934 0.09 2.286
10:03 pm 22:03 Cloudy with Nearby Thunderstorms 56 13.3 52 11.1 87 87 NNE 9 15 29.98 1015 9 14.48406 0.02 0.508
10:32 pm 22:32 Cloudy with Thunderstorms 56 13.3 52 11.1 87 87 N 12 19 30.02 1016 3 4.82802 0.1 2.54
10:50 pm 22:50 Cloudy with Light Rain 55 13 54 12 94 94 NE 14 22 29.98 1015 10 16.0934 0.11 2.794
10:54 pm 22:54 Cloudy with Light Rain 56 13.3 53 11.7 90 90 NE 14 22 29.96 1015 10 16.0934 0.11 2.794
11:08 pm 23:08 Cloudy with Nearby Thunderstorms 56 13.3 53 11.7 90 90 ENE 12 19 29.98 1015 9 14.48406 0.01 0.254
11:20 pm 23:20 Cloudy with Nearby Thunderstorms 56 13.3 53 11.7 90 90 NE 6 9 29.99 1015 2.5 4.02335 0.06 1.524
11:23 pm 23:23 Cloudy with Nearby Thunderstorms 55 12.8 53 11.7 93 93 VRB 3 6 30.02 1017 1.5 2.41401 0.12 3.048
11:35 pm 23:35 Cloudy with Nearby Thunderstorms 56 13.3 54 12.2 93 93 SE 8 13 30.05 1017 2.5 4.02335 0.34 8.636
11:43 pm 23:43 Cloudy with Nearby Thunderstorms 56 13.3 53 11.7 90 90 SSE 8 13 30.03 1017 4 6.43736 0.37 9.398
11:48 pm 23:48 Cloudy with Rain 55 13 54 12 94 94 VRB 6 9 30 1016 4 6.43736 0.38 9.652
11:52 pm 23:52 Cloudy with Rain 55 13 54 12 94 94 NW 15 24 30.03 1017 5 8.0467 0.39 9.906
11:54 pm 23:54 Cloudy with Nearby Thunderstorms 56 13.3 54 12.2 93 93 NNW 9 15 30.03 1017 6 9.65604 0.39 9.906
11:59 pm 23:59 Cloudy with Nearby Thunderstorms 56 13.3 53 11.7 90 90 NE 17 28 30 1016 7 11.26538 0.01 0.254

Powered by AerisWeather